| time (UTC) | temp F | wind direction | speed MPH | gust MPH | rain 1hr in | rain 24hr in | rain mn in | humidity % | barometer mb |
| 20260902215016 | 91 | 225 | 8.0 | 12.0 | 0.00 | 0.00 | 0.00 | 57 | 1012.6 |
| 20260902214016 | 91 | 248 | 8.0 | 11.0 | 0.00 | 0.00 | 0.00 | 55 | 1012.7 |
| 20260902213036 | 92 | 225 | 6.0 | 9.0 | 0.00 | 0.00 | 0.00 | 56 | 1012.8 |
| 20260902212016 | 92 | 225 | 9.0 | 14.0 | 0.00 | 0.00 | 0.00 | 53 | 1012.7 |
| 20260902211016 | 92 | 248 | 10.0 | 14.0 | 0.00 | 0.00 | 0.00 | 53 | 1013.0 |
| 20260902210016 | 93 | 203 | 10.0 | 19.0 | 0.00 | 0.00 | 0.00 | 52 | 1013.1 |
| 20260902205016 | 93 | 225 | 9.0 | 16.0 | 0.00 | 0.00 | 0.00 | 54 | 1013.2 |
| 20260902204016 | 93 | 225 | 8.0 | 11.0 | 0.00 | 0.00 | 0.00 | 55 | 1013.2 |
| 20260902203016 | 93 | 248 | 10.0 | 14.0 | 0.00 | 0.00 | 0.00 | 54 | 1013.3 |
| 20260902202016 | 93 | 225 | 10.0 | 15.0 | 0.00 | 0.00 | 0.00 | 52 | 1013.4 |
| 20260902201016 | 93 | 248 | 10.0 | 15.0 | 0.00 | 0.00 | 0.00 | 54 | 1013.4 |
| 20260902200036 | 93 | 225 | 11.0 | 17.0 | 0.00 | 0.00 | 0.00 | 51 | 1013.4 |
| 20260902195036 | 92 | 248 | 11.0 | 14.0 | 0.00 | 0.00 | 0.00 | 52 | 1013.5 |
| 20260902194547 | 93 | 248 | 9.0 | 11.0 | 0.00 | 0.00 | 0.00 | 52 | 1013.6 |
| 20260902193516 | 93 | 225 | 8.0 | 14.0 | 0.00 | 0.00 | 0.00 | 53 | 1013.6 |
| 20260902192516 | 93 | 248 | 7.0 | 11.0 | 0.00 | 0.00 | 0.00 | 53 | 1013.7 |
| 20260902191536 | 93 | 225 | 9.0 | 15.0 | 0.00 | 0.00 | 0.00 | 54 | 1013.9 |
| 20260902190556 | 93 | 248 | 7.0 | 11.0 | 0.00 | 0.00 | 0.00 | 54 | 1014.0 |
| 20260902185516 | 93 | 225 | 10.0 | 15.0 | 0.00 | 0.00 | 0.00 | 52 | 1014.1 |
| 20260902184536 | 92 | 225 | 9.0 | 13.0 | 0.00 | 0.00 | 0.00 | 55 | 1014.2 |
| 20260902183516 | 93 | 203 | 8.0 | 12.0 | 0.00 | 0.00 | 0.00 | 53 | 1014.2 |
| 20260902182516 | 92 | 203 | 8.0 | 16.0 | 0.00 | 0.00 | 0.00 | 55 | 1014.3 |
| 20260902181536 | 92 | 225 | 6.0 | 10.0 | 0.00 | 0.00 | 0.00 | 55 | 1014.4 |
| 20260902180536 | 92 | 203 | 8.0 | 11.0 | 0.00 | 0.00 | 0.00 | 58 | 1014.6 |
| 20260902175516 | 92 | 248 | 6.0 | 11.0 | 0.00 | 0.00 | 0.00 | 57 | 1014.6 |
| 20260902174516 | 92 | 225 | 4.0 | 9.0 | 0.00 | 0.00 | 0.00 | 60 | 1014.8 |
| 20260902173516 | 91 | 248 | 5.0 | 8.0 | 0.00 | 0.00 | 0.00 | 60 | 1015.0 |
| 20260902172516 | 91 | 203 | 5.0 | 8.0 | 0.00 | 0.00 | 0.00 | 59 | 1015.1 |
| 20260902171516 | 92 | 225 | 6.0 | 11.0 | 0.00 | 0.00 | 0.00 | 60 | 1015.3 |
| 20260902170516 | 91 | 203 | 2.0 | 6.0 | 0.00 | 0.00 | 0.00 | 58 | 1015.2 |
| 20260902165516 | 91 | 248 | 4.0 | 7.0 | 0.00 | 0.00 | 0.00 | 60 | 1015.2 |
| 20260902164516 | 90 | 270 | 2.0 | 5.0 | 0.00 | 0.00 | 0.00 | 61 | 1015.3 |
| 20260902163536 | 90 | 270 | 3.0 | 7.0 | 0.00 | 0.00 | 0.00 | 62 | 1015.3 |
| 20260902162536 | 89 | 270 | 1.0 | 4.0 | 0.00 | 0.00 | 0.00 | 61 | 1015.5 |
| 20260902161516 | 89 | 293 | 2.0 | 5.0 | 0.00 | 0.00 | 0.00 | 63 | 1015.4 |
| 20260902160516 | 89 | 315 | 1.0 | 4.0 | 0.00 | 0.00 | 0.00 | 64 | 1015.4 |
| 20260902155516 | 88 | 293 | 2.0 | 4.0 | 0.00 | 0.00 | 0.00 | 66 | 1015.5 |
| 20260902154516 | 88 | 203 | 3.0 | 7.0 | 0.00 | 0.00 | 0.00 | 67 | 1015.5 |
| 20260902153516 | 87 | 225 | 2.0 | 4.0 | 0.00 | 0.00 | 0.00 | 69 | 1015.6 |
| 20260902152516 | 86 | 248 | 4.0 | 8.0 | 0.00 | 0.00 | 0.00 | 68 | 1015.6 |
| 20260902151537 | 86 | 248 | 4.0 | 7.0 | 0.00 | 0.00 | 0.00 | 72 | 1015.7 |
| 20260902150516 | 85 | 225 | 4.0 | 6.0 | 0.00 | 0.00 | 0.00 | 72 | 1015.6 |
| 20260902145516 | 84 | 225 | 4.0 | 7.0 | 0.00 | 0.00 | 0.00 | 73 | 1015.6 |
| 20260902144516 | 84 | 225 | 4.0 | 6.0 | 0.00 | 0.00 | 0.00 | 74 | 1015.6 |
| 20260902143617 | 83 | 225 | 5.0 | 8.0 | 0.00 | 0.00 | 0.00 | 76 | 1015.4 |
| 20260902142516 | 83 | 225 | 6.0 | 12.0 | 0.00 | 0.00 | 0.00 | 76 | 1015.4 |
| 20260902141556 | 82 | 225 | 6.0 | 9.0 | 0.00 | 0.00 | 0.00 | 77 | 1015.3 |
| 20260902140536 | 81 | 225 | 5.0 | 8.0 | 0.00 | 0.00 | 0.00 | 80 | 1015.2 |
| 20260902135516 | 81 | 225 | 6.0 | 10.0 | 0.00 | 0.00 | 0.00 | 81 | 1015.2 |
| 20260902134517 | 80 | 225 | 5.0 | 8.0 | 0.00 | 0.00 | 0.00 | 83 | 1015.1 |
| 20260902133516 | 79 | 225 | 6.0 | 7.0 | 0.00 | 0.00 | 0.00 | 86 | 1015.1 |
| 20260902132516 | 78 | 225 | 5.0 | 7.0 | 0.00 | 0.00 | 0.00 | 88 | 1015.1 |
| 20260902131536 | 77 | 248 | 4.0 | 6.0 | 0.00 | 0.00 | 0.00 | 90 | 1015.2 |
| 20260902130516 | 76 | 225 | 4.0 | 8.0 | 0.00 | 0.00 | 0.00 | 91 | 1015.1 |
| 20260902125536 | 76 | 225 | 5.0 | 8.0 | 0.00 | 0.00 | 0.00 | 91 | 1015.2 |
| 20260902124516 | 75 | 225 | 4.0 | 7.0 | 0.00 | 0.00 | 0.00 | 93 | 1015.2 |
| 20260902123556 | 75 | 203 | 3.0 | 6.0 | 0.00 | 0.00 | 0.00 | 93 | 1015.2 |
| 20260902122516 | 74 | 203 | 5.0 | 7.0 | 0.00 | 0.00 | 0.00 | 94 | 1015.1 |
| 20260902121516 | 74 | 203 | 4.0 | 6.0 | 0.00 | 0.00 | 0.00 | 94 | 1015.1 |
| 20260902120516 | 73 | 0.0 | 2.0 | 0.00 | 0.00 | 0.00 | 94 | 1015.0 | |
| 20260902115516 | 73 | 0.0 | 0.0 | 0.00 | 0.00 | 0.00 | 94 | 1014.9 | |
| 20260902114516 | 72 | 0.0 | 0.0 | 0.00 | 0.00 | 0.00 | 94 | 1014.8 | |
| 20260902113536 | 72 | 0.0 | 0.0 | 0.00 | 0.00 | 0.00 | 94 | 1014.9 | |
| 20260902112536 | 72 | 0.0 | 0.0 | 0.00 | 0.00 | 0.00 | 94 | 1014.7 | |
| 20260902111516 | 72 | 0.0 | 0.0 | 0.00 | 0.00 | 0.00 | 93 | 1014.6 | |
| 20260902110516 | 73 | 0.0 | 0.0 | 0.00 | 0.00 | 0.00 | 94 | 1014.4 | |
| 20260902105516 | 73 | 0.0 | 2.0 | 0.00 | 0.00 | 0.00 | 94 | 1014.4 | |
| 20260902104516 | 72 | 0.0 | 0.0 | 0.00 | 0.00 | 0.00 | 94 | 1014.5 | |
| 20260902103516 | 73 | 0.0 | 2.0 | 0.00 | 0.00 | 0.00 | 94 | 1014.3 | |
| 20260902102516 | 72 | 0.0 | 0.0 | 0.00 | 0.00 | 0.00 | 94 | 1014.3 | |
| 20260902101536 | 72 | 0.0 | 0.0 | 0.00 | 0.00 | 0.00 | 94 | 1014.1 | |
| 20260902100516 | 72 | 0.0 | 0.0 | 0.00 | 0.00 | 0.00 | 94 | 1014.3 | |
| 20260902095536 | 72 | 0.0 | 0.0 | 0.00 | 0.00 | 0.00 | 93 | 1014.3 | |
| 20260902094517 | 73 | 0.0 | 0.0 | 0.00 | 0.00 | 0.00 | 93 | 1014.4 | |
| 20260902093516 | 73 | 0.0 | 0.0 | 0.00 | 0.00 | 0.00 | 93 | 1014.6 | |
| 20260902092517 | 73 | 0.0 | 0.0 | 0.00 | 0.00 | 0.00 | 93 | 1014.7 | |
| 20260902091538 | 73 | 0.0 | 0.0 | 0.00 | 0.00 | 0.00 | 93 | 1014.7 | |
| 20260902090516 | 74 | 0.0 | 0.0 | 0.00 | 0.00 | 0.00 | 94 | 1014.7 | |
| 20260902085516 | 73 | 0.0 | 2.0 | 0.00 | 0.00 | 0.00 | 94 | 1014.8 | |
| 20260902084556 | 74 | 0.0 | 1.0 | 0.00 | 0.00 | 0.00 | 94 | 1014.8 | |
| 20260902083516 | 74 | 203 | 1.0 | 4.0 | 0.00 | 0.00 | 0.00 | 94 | 1014.6 |
| 20260902082516 | 74 | 0.0 | 0.0 | 0.00 | 0.00 | 0.00 | 94 | 1014.5 | |
| 20260902081517 | 73 | 0.0 | 2.0 | 0.00 | 0.00 | 0.00 | 94 | 1014.5 | |
| 20260902080516 | 72 | 0.0 | 0.0 | 0.00 | 0.00 | 0.00 | 94 | 1014.5 | |
| 20260902075516 | 72 | 0.0 | 0.0 | 0.00 | 0.00 | 0.00 | 94 | 1014.5 | |
| 20260902074516 | 71 | 0.0 | 0.0 | 0.00 | 0.00 | 0.00 | 93 | 1014.4 | |
| 20260902073516 | 72 | 0.0 | 0.0 | 0.00 | 0.00 | 0.00 | 93 | 1014.3 | |
| 20260902072516 | 72 | 0.0 | 0.0 | 0.00 | 0.00 | 0.00 | 94 | 1014.5 | |
| 20260902071556 | 71 | 0.0 | 0.0 | 0.00 | 0.00 | 0.00 | 93 | 1014.3 | |
| 20260902070516 | 72 | 0.0 | 0.0 | 0.00 | 0.00 | 0.00 | 93 | 1014.5 | |
| 20260902065516 | 72 | 0.0 | 0.0 | 0.00 | 0.00 | 0.00 | 93 | 1014.5 | |
| 20260902064501 | 72 | 0.0 | 0.0 | 0.00 | 0.00 | 0.00 | 93 | 1014.6 | |
| 20260902064122 | 72 | 0.0 | 0.0 | 0.00 | 0.00 | 0.00 | 93 | 1014.6 | |
| 20260902063516 | 72 | 0.0 | 0.0 | 0.00 | 0.00 | 0.00 | 93 | 1014.6 | |
| 20260902062556 | 72 | 0.0 | 0.0 | 0.00 | 0.00 | 0.00 | 92 | 1014.6 | |
| 20260902061516 | 72 | 0.0 | 0.0 | 0.00 | 0.00 | 0.00 | 93 | 1014.6 | |
| 20260902060536 | 72 | 0.0 | 0.0 | 0.00 | 0.00 | 0.00 | 93 | 1014.7 | |
| 20260902055536 | 72 | 0.0 | 0.0 | 0.00 | 0.00 | 0.00 | 93 | 1014.6 | |
| 20260902054516 | 72 | 0.0 | 0.0 | 0.00 | 0.00 | 0.00 | 93 | 1014.6 | |
| 20260902053516 | 72 | 0.0 | 0.0 | 0.00 | 0.00 | 0.00 | 93 | 1014.4 | |
| 20260902052556 | 72 | 0.0 | 0.0 | 0.00 | 0.00 | 0.00 | 92 | 1014.4 | |
| 20260902051516 | 72 | 0.0 | 0.0 | 0.00 | 0.00 | 0.00 | 92 | 1014.5 | |
| 20260902050517 | 72 | 0.0 | 0.0 | 0.00 | 0.00 | 0.00 | 92 | 1014.4 | |
| 20260902045536 | 72 | 0.0 | 0.0 | 0.00 | 0.00 | 0.00 | 92 | 1014.4 | |
| 20260902044516 | 72 | 0.0 | 0.0 | 0.00 | 0.00 | 0.00 | 92 | 1014.3 | |
| 20260902043516 | 73 | 0.0 | 0.0 | 0.00 | 0.00 | 0.00 | 92 | 1014.2 | |
| 20260902042517 | 73 | 0.0 | 0.0 | 0.00 | 0.00 | 0.00 | 92 | 1014.1 | |
| 20260902041516 | 73 | 0.0 | 0.0 | 0.00 | 0.00 | 0.00 | 92 | 1014.1 | |
| 20260902040516 | 73 | 0.0 | 0.0 | 0.00 | 0.00 | 0.00 | 92 | 1014.1 | |
| 20260902035536 | 73 | 0.0 | 0.0 | 0.00 | 0.00 | 0.00 | 92 | 1014.1 | |
| 20260902034536 | 73 | 0.0 | 0.0 | 0.00 | 0.00 | 0.00 | 92 | 1014.3 | |
| 20260902033516 | 74 | 0.0 | 0.0 | 0.00 | 0.00 | 0.00 | 92 | 1014.4 | |
| 20260902032516 | 74 | 0.0 | 0.0 | 0.00 | 0.00 | 0.00 | 91 | 1014.4 | |
| 20260902031516 | 73 | 0.0 | 0.0 | 0.00 | 0.00 | 0.00 | 91 | 1014.4 | |
| 20260902030516 | 74 | 0.0 | 0.0 | 0.00 | 0.00 | 0.00 | 91 | 1014.4 | |
| 20260902025536 | 74 | 0.0 | 0.0 | 0.00 | 0.00 | 0.00 | 91 | 1014.6 | |
| 20260902024616 | 74 | 0.0 | 0.0 | 0.00 | 0.00 | 0.00 | 91 | 1014.6 | |
| 20260902023516 | 74 | 0.0 | 0.0 | 0.00 | 0.00 | 0.00 | 90 | 1014.4 | |
| 20260902022516 | 75 | 0.0 | 0.0 | 0.00 | 0.00 | 0.00 | 89 | 1014.3 | |
| 20260902021536 | 75 | 0.0 | 0.0 | 0.00 | 0.00 | 0.00 | 90 | 1014.3 | |
| 20260902020516 | 75 | 0.0 | 0.0 | 0.00 | 0.00 | 0.00 | 90 | 1014.0 | |
| 20260902015556 | 75 | 0.0 | 0.0 | 0.00 | 0.00 | 0.00 | 88 | 1013.9 | |
| 20260902014516 | 76 | 0.0 | 0.0 | 0.00 | 0.00 | 0.00 | 88 | 1013.8 | |
| 20260902013516 | 76 | 0.0 | 0.0 | 0.00 | 0.00 | 0.00 | 88 | 1013.7 | |
| 20260902012517 | 76 | 0.0 | 0.0 | 0.00 | 0.00 | 0.00 | 88 | 1013.6 | |
| 20260902011516 | 76 | 0.0 | 0.0 | 0.00 | 0.00 | 0.00 | 88 | 1013.5 | |
| 20260902010536 | 77 | 0.0 | 0.0 | 0.00 | 0.00 | 0.00 | 86 | 1013.5 | |
| 20260902005536 | 77 | 0.0 | 0.0 | 0.00 | 0.00 | 0.00 | 86 | 1013.3 | |
| 20260902004516 | 78 | 0.0 | 0.0 | 0.00 | 0.00 | 0.00 | 86 | 1013.2 | |
| 20260902003516 | 78 | 0.0 | 0.0 | 0.00 | 0.00 | 0.00 | 86 | 1013.1 | |
| 20260902002516 | 79 | 0.0 | 2.0 | 0.00 | 0.00 | 0.00 | 86 | 1013.3 | |
| 20260902001536 | 79 | 0.0 | 2.0 | 0.00 | 0.00 | 0.00 | 85 | 1013.3 | |
| 20260902000516 | 79 | 225 | 3.0 | 5.0 | 0.00 | 0.00 | 0.00 | 86 | 1013.1 |
| 20260901235536 | 79 | 203 | 4.0 | 6.0 | 0.00 | 0.00 | 0.00 | 85 | 1013.2 |
| 20260901234556 | 80 | 248 | 3.0 | 4.0 | 0.00 | 0.00 | 0.00 | 85 | 1013.3 |
| 20260901233536 | 80 | 248 | 5.0 | 8.0 | 0.00 | 0.00 | 0.00 | 84 | 1013.4 |
| 20260901232516 | 80 | 225 | 5.0 | 9.0 | 0.00 | 0.00 | 0.00 | 84 | 1013.4 |
| 20260901231516 | 80 | 225 | 6.0 | 9.0 | 0.00 | 0.00 | 0.00 | 84 | 1013.5 |
| 20260901230516 | 80 | 225 | 6.0 | 9.0 | 0.00 | 0.00 | 0.00 | 83 | 1013.9 |
| 20260901225516 | 80 | 248 | 6.0 | 9.0 | 0.00 | 0.00 | 0.00 | 81 | 1014.0 |
| 20260901224518 | 81 | 225 | 9.0 | 14.0 | 0.00 | 0.00 | 0.00 | 81 | 1014.2 |
| 20260901223516 | 81 | 225 | 4.0 | 6.0 | 0.00 | 0.00 | 0.00 | 81 | 1014.2 |
| 20260901222516 | 81 | 225 | 2.0 | 6.0 | 0.00 | 0.00 | 0.00 | 82 | 1014.3 |
| 20260901221556 | 81 | 203 | 3.0 | 6.0 | 0.00 | 0.00 | 0.00 | 81 | 1014.1 |
| 20260901220516 | 82 | 203 | 2.0 | 4.0 | 0.00 | 0.00 | 0.00 | 80 | 1014.1 |
| 20260901215516 | 82 | 203 | 4.0 | 7.0 | 0.00 | 0.00 | 0.00 | 77 | 1014.2 |